Tracking 23099 objects as of 14-May-2021
HD Live streaming from Space Station
objects crossing your sky now

SCOUT A R/B

Track SCOUT A R/B now!
10-day predictions


NORAD ID: 2120
Int'l Code: 1966-024B
Perigee: 886.4 km
Apogee: 1,112.0 km
Inclination: 89.8 °
Period: 104.9 minutes
Semi major axis: 7370 km
RCS: 0.668 m2 (medium)
Launch date: March 26, 1966
Source: United States (US)
Launch site: AIR FORCE WESTERN TEST RANGE (AFWTR)

Note: This is a ROCKET BODY
aabbcc
Your satellite tracking list
Your tracking list is empty




NASA's NSSDC Master Catalog

Two Line Element Set (TLE):
1  2120U 66024B   21133.71481996  .00000024  00000-0  12609-4 0  9996
2  2120  89.7957 208.1766 0153097  44.0730 317.2517 13.72092213757224
Source of the keplerian elements: AFSPC